Year,Month,Day,Hour,Minute,Value (Times are PST for temperature in C)
2014,11,29,00,00,-1.80
2014,11,29,00,01,-1.80
2014,11,29,00,02,-1.80
2014,11,29,00,03,-1.80
2014,11,29,00,04,-1.80
2014,11,29,00,05,-1.80
2014,11,29,00,06,-1.80
2014,11,29,00,07,-1.80
2014,11,29,00,08,-1.80
2014,11,29,00,09,-1.80
2014,11,29,00,10,-1.80
2014,11,29,00,11,-1.80
2014,11,29,00,12,-1.80
2014,11,29,00,13,-1.80
2014,11,29,00,14,-1.90
2014,11,29,00,15,-1.90
2014,11,29,00,16,-1.90
2014,11,29,00,17,-1.90
2014,11,29,00,18,-1.90
2014,11,29,00,19,-1.90
2014,11,29,00,20,-1.90
2014,11,29,00,21,-1.90
2014,11,29,00,22,-1.90
2014,11,29,00,23,-1.90
2014,11,29,00,24,-1.90
2014,11,29,00,25,-1.90
2014,11,29,00,26,-1.90
2014,11,29,00,27,-1.90
2014,11,29,00,28,-1.90
2014,11,29,00,29,-1.90
2014,11,29,00,30,-1.90
2014,11,29,00,31,-1.90
2014,11,29,00,32,-1.90
2014,11,29,00,33,-1.90
2014,11,29,00,34,-2.00
2014,11,29,00,35,-2.00
2014,11,29,00,36,-2.00
2014,11,29,00,37,-2.00
2014,11,29,00,38,-2.00
2014,11,29,00,39,-2.00
2014,11,29,00,40,-2.00
2014,11,29,00,41,-2.00
2014,11,29,00,42,-2.00
2014,11,29,00,43,-2.00
2014,11,29,00,44,-2.00
2014,11,29,00,45,-2.00
2014,11,29,00,46,-2.00
2014,11,29,00,47,-2.00
2014,11,29,00,48,-2.00
2014,11,29,00,49,-2.00
2014,11,29,00,50,-2.00
2014,11,29,00,51,-2.00
2014,11,29,00,52,-2.00
2014,11,29,00,53,-2.00
2014,11,29,00,54,-2.00
2014,11,29,00,55,-2.00
2014,11,29,00,56,-2.00
2014,11,29,00,57,-2.00
2014,11,29,00,58,-2.00
2014,11,29,00,59,-2.00
2014,11,29,01,00,-2.00
2014,11,29,01,01,-2.00
2014,11,29,01,02,-2.00
2014,11,29,01,03,-2.00
2014,11,29,01,04,-2.00
2014,11,29,01,05,-2.00
2014,11,29,01,06,-2.00
2014,11,29,01,07,-2.00
2014,11,29,01,08,-2.00
2014,11,29,01,09,-2.00
2014,11,29,01,10,-2.00
2014,11,29,01,11,-2.00
2014,11,29,01,12,-2.00
2014,11,29,01,13,-2.00
2014,11,29,01,14,-2.00
2014,11,29,01,15,-2.00
2014,11,29,01,16,-2.00
2014,11,29,01,17,-2.00
2014,11,29,01,18,-2.00
2014,11,29,01,19,-2.00
2014,11,29,01,20,-2.00
2014,11,29,01,21,-2.00
2014,11,29,01,22,-2.00
2014,11,29,01,23,-2.00
2014,11,29,01,24,-2.00
2014,11,29,01,25,-2.00
2014,11,29,01,26,-2.00
2014,11,29,01,27,-2.00
2014,11,29,01,28,-2.00
2014,11,29,01,29,-2.00
2014,11,29,01,30,-2.00
2014,11,29,01,31,-2.00
2014,11,29,01,32,-2.00
2014,11,29,01,33,-2.00
2014,11,29,01,34,-2.00
2014,11,29,01,35,-2.00
2014,11,29,01,36,-2.00
2014,11,29,01,37,-2.00
2014,11,29,01,38,-2.00
2014,11,29,01,39,-2.00
2014,11,29,01,40,-2.00
2014,11,29,01,41,-2.00
2014,11,29,01,42,-2.00
2014,11,29,01,43,-2.00
2014,11,29,01,44,-2.00
2014,11,29,01,45,-2.00
2014,11,29,01,46,-2.00
2014,11,29,01,47,-2.00
2014,11,29,01,48,-2.00
2014,11,29,01,49,-2.00
2014,11,29,01,50,-2.00
2014,11,29,01,51,-2.00
2014,11,29,01,52,-2.00
2014,11,29,01,53,-2.00
2014,11,29,01,54,-2.00
2014,11,29,01,55,-2.00
2014,11,29,01,56,-2.00
2014,11,29,01,57,-2.00
2014,11,29,01,58,-2.00
2014,11,29,01,59,-2.00
2014,11,29,02,00,-2.00
2014,11,29,02,01,-2.00
2014,11,29,02,02,-2.00
2014,11,29,02,03,-2.00
2014,11,29,02,04,-2.00
2014,11,29,02,05,-2.00
2014,11,29,02,06,-2.00
2014,11,29,02,07,-2.00
2014,11,29,02,08,-2.10
2014,11,29,02,09,-2.10
2014,11,29,02,10,-2.10
2014,11,29,02,11,-2.10
2014,11,29,02,12,-2.10
2014,11,29,02,13,-2.10
2014,11,29,02,14,-2.10
2014,11,29,02,15,-2.10
2014,11,29,02,16,-2.10
2014,11,29,02,17,-2.10
2014,11,29,02,18,-2.10
2014,11,29,02,19,-2.10
2014,11,29,02,20,-2.10
2014,11,29,02,21,-2.10
2014,11,29,02,22,-2.10
2014,11,29,02,23,-2.10
2014,11,29,02,24,-2.10
2014,11,29,02,25,-2.20
2014,11,29,02,26,-2.20
2014,11,29,02,27,-2.20
2014,11,29,02,28,-2.20
2014,11,29,02,29,-2.20
2014,11,29,02,30,-2.20
2014,11,29,02,31,-2.20
2014,11,29,02,32,-2.20
2014,11,29,02,33,-2.20
2014,11,29,02,34,-2.20
2014,11,29,02,35,-2.20
2014,11,29,02,36,-2.20
2014,11,29,02,37,-2.20
2014,11,29,02,38,-2.20
2014,11,29,02,39,-2.20
2014,11,29,02,40,-2.20
2014,11,29,02,41,-2.20
2014,11,29,02,42,-2.20
2014,11,29,02,43,-2.30
2014,11,29,02,44,-2.30
2014,11,29,02,45,-2.30
2014,11,29,02,46,-2.30
2014,11,29,02,47,-2.30
2014,11,29,02,48,-2.30
2014,11,29,02,49,-2.30
2014,11,29,02,50,-2.30
2014,11,29,02,51,-2.30
2014,11,29,02,52,-2.30
2014,11,29,02,53,-2.30
2014,11,29,02,54,-2.30
2014,11,29,02,55,-2.30
2014,11,29,02,56,-2.40
2014,11,29,02,57,-2.40
2014,11,29,02,58,-2.40
2014,11,29,02,59,-2.40
2014,11,29,03,00,-2.40
2014,11,29,03,01,-2.40
2014,11,29,03,02,-2.40
2014,11,29,03,03,-2.40
2014,11,29,04,02,-3.00
2014,11,29,04,03,-3.00
2014,11,29,04,04,-3.00
2014,11,29,04,05,-3.00
2014,11,29,04,06,-3.00
2014,11,29,04,07,-3.00
2014,11,29,04,08,-3.00
2014,11,29,04,09,-3.00
2014,11,29,04,10,-3.00
2014,11,29,04,11,-3.00
2014,11,29,04,12,-3.00
2014,11,29,04,13,-3.00
2014,11,29,04,14,-3.00
2014,11,29,04,15,-3.00
2014,11,29,04,16,-3.00
2014,11,29,04,17,-3.00
2014,11,29,04,18,-3.00
2014,11,29,04,19,-3.00
2014,11,29,04,20,-3.00
2014,11,29,04,21,-3.00
2014,11,29,04,22,-3.00
2014,11,29,04,23,-3.00
2014,11,29,04,24,-3.00
2014,11,29,04,25,-3.10
2014,11,29,04,26,-3.10
2014,11,29,04,27,-3.10
2014,11,29,04,28,-3.10
2014,11,29,04,29,-3.10
2014,11,29,04,30,-3.10
2014,11,29,04,31,-3.10
2014,11,29,04,32,-3.00
2014,11,29,04,33,-3.00
2014,11,29,04,34,-3.00
2014,11,29,04,35,-3.00
2014,11,29,04,36,-3.10
2014,11,29,04,37,-3.10
2014,11,29,04,38,-3.10
2014,11,29,04,39,-3.10
2014,11,29,04,40,-3.10
2014,11,29,04,41,-3.10
2014,11,29,04,42,-3.10
2014,11,29,04,43,-3.10
2014,11,29,04,44,-3.20
2014,11,29,04,45,-3.20
2014,11,29,04,46,-3.20
2014,11,29,04,47,-3.20
2014,11,29,04,48,-3.20
2014,11,29,04,49,-3.20
2014,11,29,04,50,-3.20
2014,11,29,04,51,-3.20
2014,11,29,04,52,-3.20
2014,11,29,04,53,-3.20
2014,11,29,04,54,-3.20
2014,11,29,04,55,-3.20
2014,11,29,04,56,-3.20
2014,11,29,04,57,-3.20
2014,11,29,04,58,-3.20
2014,11,29,04,59,-3.20
2014,11,29,05,00,-3.20
2014,11,29,05,01,-3.20
2014,11,29,05,02,-3.20
2014,11,29,05,03,-3.20
2014,11,29,05,04,-3.20
2014,11,29,05,05,-3.20
2014,11,29,05,06,-3.20
2014,11,29,05,07,-3.20
2014,11,29,05,08,-3.20
2014,11,29,05,09,-3.20
2014,11,29,05,10,-3.20
2014,11,29,05,11,-3.20
2014,11,29,05,12,-3.20
2014,11,29,05,13,-3.20
2014,11,29,05,14,-3.20
2014,11,29,05,15,-3.20
2014,11,29,05,16,-3.30
2014,11,29,05,17,-3.30
2014,11,29,05,18,-3.30
2014,11,29,05,19,-3.30
2014,11,29,05,20,-3.30
2014,11,29,05,21,-3.30
2014,11,29,05,22,-3.30
2014,11,29,05,23,-3.30
2014,11,29,05,24,-3.20
2014,11,29,05,25,-3.20
2014,11,29,05,26,-3.20
2014,11,29,05,27,-3.20
2014,11,29,05,28,-3.20
2014,11,29,05,29,-3.20
2014,11,29,05,30,-3.20
2014,11,29,05,31,-3.20
2014,11,29,05,32,-3.20
2014,11,29,05,33,-3.20
2014,11,29,05,34,-3.20
2014,11,29,05,35,-3.20
2014,11,29,05,36,-3.20
2014,11,29,05,37,-3.10
2014,11,29,05,38,-3.10
2014,11,29,05,39,-3.10
2014,11,29,05,40,-3.10
2014,11,29,05,41,-3.10
2014,11,29,05,42,-3.10
2014,11,29,05,43,-3.10
2014,11,29,05,44,-3.10
2014,11,29,05,45,-3.10
2014,11,29,05,46,-3.10
2014,11,29,05,47,-3.10
2014,11,29,05,48,-3.10
2014,11,29,05,49,-3.10
2014,11,29,05,50,-3.10
2014,11,29,05,51,-3.20
2014,11,29,05,52,-3.20
2014,11,29,05,53,-3.20
2014,11,29,05,54,-3.20
2014,11,29,05,55,-3.20
2014,11,29,05,56,-3.20
2014,11,29,05,57,-3.20
2014,11,29,05,58,-3.20
2014,11,29,05,59,-3.20
2014,11,29,06,00,-3.20
2014,11,29,06,01,-3.20
2014,11,29,06,02,-3.20
2014,11,29,06,03,-3.20
2014,11,29,06,04,-3.20
2014,11,29,06,05,-3.20
2014,11,29,06,06,-3.20
2014,11,29,06,07,-3.20
2014,11,29,06,08,-3.20
2014,11,29,06,09,-3.10
2014,11,29,06,10,-3.10
2014,11,29,06,11,-3.10
2014,11,29,06,12,-3.10
2014,11,29,06,13,-3.10
2014,11,29,06,14,-3.10
2014,11,29,06,15,-3.10
2014,11,29,06,16,-3.10
2014,11,29,06,17,-3.10
2014,11,29,06,18,-3.10
2014,11,29,06,19,-3.10
2014,11,29,06,20,-3.20
2014,11,29,06,21,-3.20
2014,11,29,06,22,-3.20
2014,11,29,06,23,-3.10
2014,11,29,06,24,-3.10
2014,11,29,06,25,-3.10
2014,11,29,06,26,-3.10
2014,11,29,06,27,-3.10
2014,11,29,06,28,-3.10
2014,11,29,06,29,-3.10
2014,11,29,06,30,-3.10
2014,11,29,06,31,-3.20
2014,11,29,06,32,-3.20
2014,11,29,06,33,-3.20
2014,11,29,06,34,-3.20
2014,11,29,06,35,-3.20
2014,11,29,06,36,-3.20
2014,11,29,06,37,-3.20
2014,11,29,06,38,-3.20
2014,11,29,06,39,-3.20
2014,11,29,06,40,-3.20
2014,11,29,06,41,-3.20
2014,11,29,06,42,-3.20
2014,11,29,06,43,-3.20
2014,11,29,06,44,-3.20
2014,11,29,06,45,-3.20
2014,11,29,06,46,-3.20
2014,11,29,06,47,-3.20
2014,11,29,06,48,-3.20
2014,11,29,06,49,-3.20
2014,11,29,06,50,-3.20
2014,11,29,06,51,-3.20
2014,11,29,06,52,-3.20
2014,11,29,06,53,-3.20
2014,11,29,06,54,-3.20
2014,11,29,06,55,-3.20
2014,11,29,06,56,-3.20
2014,11,29,06,57,-3.20
2014,11,29,06,58,-3.20
2014,11,29,06,59,-3.20
2014,11,29,07,00,-3.20
2014,11,29,07,01,-3.20
2014,11,29,07,02,-3.20
2014,11,29,07,03,-3.20
2014,11,29,07,04,-3.20
2014,11,29,07,05,-3.20
2014,11,29,07,06,-3.20
2014,11,29,07,07,-3.20
2014,11,29,07,08,-3.20
2014,11,29,07,09,-3.20
2014,11,29,07,10,-3.20
2014,11,29,07,11,-3.20
2014,11,29,07,12,-3.20
2014,11,29,07,13,-3.20
2014,11,29,07,14,-3.20
2014,11,29,07,15,-3.20
2014,11,29,07,16,-3.20
2014,11,29,07,17,-3.20
2014,11,29,07,18,-3.20
2014,11,29,07,19,-3.20
2014,11,29,07,20,-3.20
2014,11,29,07,21,-3.20
2014,11,29,07,22,-3.20
2014,11,29,07,23,-3.20
2014,11,29,07,24,-3.20
2014,11,29,07,25,-3.20
2014,11,29,07,26,-3.20
2014,11,29,07,27,-3.20
2014,11,29,07,28,-3.20
2014,11,29,07,29,-3.20
2014,11,29,07,30,-3.20
2014,11,29,07,31,-3.20
2014,11,29,07,32,-3.20
2014,11,29,07,33,-3.20
2014,11,29,07,34,-3.20
2014,11,29,07,35,-3.20
2014,11,29,07,36,-3.20
2014,11,29,07,37,-3.20
2014,11,29,07,38,-3.20
2014,11,29,07,39,-3.20
2014,11,29,07,40,-3.20
2014,11,29,07,41,-3.20
2014,11,29,07,42,-3.10
2014,11,29,07,43,-3.10
2014,11,29,07,44,-3.10
2014,11,29,07,45,-3.10
2014,11,29,07,46,-3.10
2014,11,29,07,47,-3.10
2014,11,29,07,48,-3.10
2014,11,29,07,49,-3.10
2014,11,29,07,50,-3.10
2014,11,29,07,51,-3.10
2014,11,29,07,52,-3.10
2014,11,29,07,53,-3.10
2014,11,29,07,54,-3.10
2014,11,29,07,55,-3.20
2014,11,29,07,56,-3.20
2014,11,29,07,57,-3.10
2014,11,29,07,58,-3.20
2014,11,29,07,59,-3.20
2014,11,29,08,00,-3.20
2014,11,29,08,01,-3.20
2014,11,29,08,02,-3.20
2014,11,29,08,03,-3.20
2014,11,29,08,04,-3.20
2014,11,29,08,05,-3.20
2014,11,29,08,06,-3.20
2014,11,29,08,07,-3.20
2014,11,29,08,08,-3.20
2014,11,29,08,09,-3.20
2014,11,29,08,10,-3.20
2014,11,29,08,11,-3.20
2014,11,29,08,12,-3.20
2014,11,29,08,13,-3.20
2014,11,29,08,14,-3.20
2014,11,29,08,15,-3.10
2014,11,29,08,16,-3.10
2014,11,29,08,17,-3.10
2014,11,29,08,18,-3.10
2014,11,29,08,19,-3.10
2014,11,29,08,20,-3.10
2014,11,29,08,21,-3.10
2014,11,29,08,22,-3.10
2014,11,29,08,23,-3.10
2014,11,29,08,24,-3.10
2014,11,29,08,25,-3.10
2014,11,29,08,26,-3.10
2014,11,29,08,27,-3.10
2014,11,29,08,28,-3.10
2014,11,29,08,29,-3.10
2014,11,29,08,30,-3.00
2014,11,29,08,31,-3.00
2014,11,29,08,32,-3.00
2014,11,29,08,33,-3.00
2014,11,29,08,34,-3.00
2014,11,29,08,35,-3.00
2014,11,29,08,36,-2.90
2014,11,29,08,37,-2.90
2014,11,29,08,38,-2.90
2014,11,29,08,39,-2.90
2014,11,29,08,40,-2.90
2014,11,29,08,41,-2.90
2014,11,29,08,42,-2.90
2014,11,29,08,43,-2.90
2014,11,29,08,44,-2.80
2014,11,29,08,45,-2.80
2014,11,29,08,46,-2.80
2014,11,29,08,47,-2.70
2014,11,29,08,48,-2.70
2014,11,29,08,49,-2.70
2014,11,29,08,50,-2.70
2014,11,29,08,51,-2.70
2014,11,29,08,52,-2.70
2014,11,29,08,53,-2.60
2014,11,29,08,54,-2.60
2014,11,29,08,55,-2.60
2014,11,29,08,56,-2.60
2014,11,29,08,57,-2.60
2014,11,29,08,58,-2.60
2014,11,29,08,59,-2.60
2014,11,29,09,00,-2.60
2014,11,29,09,01,-2.60
2014,11,29,09,02,-2.60
2014,11,29,09,03,-2.60
2014,11,29,09,04,-2.60
2014,11,29,09,05,-2.60
2014,11,29,09,06,-2.50
2014,11,29,09,07,-2.50
2014,11,29,09,08,-2.50
2014,11,29,09,09,-2.40
2014,11,29,09,10,-2.40
2014,11,29,09,11,-2.40
2014,11,29,09,12,-2.40
2014,11,29,09,13,-2.40
2014,11,29,09,14,-2.40
2014,11,29,09,15,-2.40
2014,11,29,09,16,-2.40
2014,11,29,09,17,-2.40
2014,11,29,09,18,-2.40
2014,11,29,09,19,-2.40
2014,11,29,09,20,-2.30
2014,11,29,09,21,-2.30
2014,11,29,09,22,-2.30
2014,11,29,09,23,-2.30
2014,11,29,09,24,-2.20
2014,11,29,09,25,-2.20
2014,11,29,09,26,-2.20
2014,11,29,09,27,-2.10
2014,11,29,09,28,-2.10
2014,11,29,09,29,-2.10
2014,11,29,09,30,-2.00
2014,11,29,09,31,-2.00
2014,11,29,09,32,-1.90
2014,11,29,09,33,-1.90
2014,11,29,09,34,-1.90
2014,11,29,09,35,-1.90
2014,11,29,09,36,-1.90
2014,11,29,09,37,-1.80
2014,11,29,09,38,-1.80
2014,11,29,09,39,-1.80
2014,11,29,09,40,-1.80
2014,11,29,09,41,-1.70
2014,11,29,09,42,-1.70
2014,11,29,09,43,-1.70
2014,11,29,09,44,-1.70
2014,11,29,09,45,-1.60
2014,11,29,09,46,-1.60
2014,11,29,09,47,-1.60
2014,11,29,09,48,-1.60
2014,11,29,09,49,-1.60
2014,11,29,09,50,-1.50
2014,11,29,09,51,-1.50
2014,11,29,09,52,-1.50
2014,11,29,09,53,-1.40
2014,11,29,09,54,-1.40
2014,11,29,09,55,-1.40
2014,11,29,09,56,-1.40
2014,11,29,09,57,-1.40
2014,11,29,09,58,-1.30
2014,11,29,09,59,-1.30
2014,11,29,10,00,-1.30
2014,11,29,10,01,-1.30
2014,11,29,10,02,-1.30
2014,11,29,10,03,-1.20
2014,11,29,10,04,-1.20
2014,11,29,10,05,-1.20
2014,11,29,10,06,-1.20
2014,11,29,10,07,-1.10
2014,11,29,10,08,-1.10
2014,11,29,10,09,-1.10
2014,11,29,10,10,-1.10
2014,11,29,10,11,-1.00
2014,11,29,10,12,-1.00
2014,11,29,10,13,-1.00
2014,11,29,10,14,-0.90
2014,11,29,10,15,-0.90
2014,11,29,10,16,-0.90
2014,11,29,10,17,-0.90
2014,11,29,10,18,-0.90
2014,11,29,10,19,-0.90
2014,11,29,10,20,-0.80
2014,11,29,10,21,-0.80
2014,11,29,10,22,-0.80
2014,11,29,10,23,-0.80
2014,11,29,10,24,-0.80
2014,11,29,10,25,-0.80
2014,11,29,10,26,-0.80
2014,11,29,10,27,-0.80
2014,11,29,10,28,-0.80
2014,11,29,10,29,-0.80
2014,11,29,10,30,-0.70
2014,11,29,10,31,-0.70
2014,11,29,10,32,-0.70
2014,11,29,10,33,-0.70
2014,11,29,10,34,-0.70
2014,11,29,10,35,-0.70
2014,11,29,10,36,-0.70
2014,11,29,10,37,-0.60
2014,11,29,10,38,-0.60
2014,11,29,10,39,-0.60
2014,11,29,10,40,-0.60
2014,11,29,10,41,-0.60
2014,11,29,10,42,-0.50
2014,11,29,10,43,-0.40
2014,11,29,10,44,-0.40
2014,11,29,10,45,-0.40
2014,11,29,10,46,-0.30
2014,11,29,10,47,-0.30
2014,11,29,10,48,-0.30
2014,11,29,10,49,-0.30
2014,11,29,10,50,-0.30
2014,11,29,10,51,-0.20
2014,11,29,10,52,-0.20
2014,11,29,10,53,-0.20
2014,11,29,10,54,-0.20
2014,11,29,10,55,-0.20
2014,11,29,10,56,-0.20
2014,11,29,10,57,-0.20
2014,11,29,10,58,-0.20
2014,11,29,10,59,-0.10
2014,11,29,11,00,-0.10
2014,11,29,11,01,-0.10
2014,11,29,11,02,-0.10
2014,11,29,11,03,-0.10
2014,11,29,11,04,-0.10
2014,11,29,11,05,0.00
2014,11,29,11,06,0.00
2014,11,29,11,07,0.00
2014,11,29,11,08,0.10
2014,11,29,11,09,0.10
2014,11,29,11,10,0.10
2014,11,29,11,11,0.10
2014,11,29,11,12,0.10
2014,11,29,11,13,0.10
2014,11,29,11,14,0.10
2014,11,29,11,15,0.10
2014,11,29,11,16,0.10
2014,11,29,11,17,0.20
2014,11,29,11,18,0.20
2014,11,29,11,19,0.20
2014,11,29,11,20,0.20
2014,11,29,11,21,0.10
2014,11,29,11,22,0.10
2014,11,29,11,23,0.10
2014,11,29,11,24,0.10
2014,11,29,11,25,0.20
2014,11,29,11,26,0.20
2014,11,29,11,27,0.20
2014,11,29,11,28,0.20
2014,11,29,11,29,0.20
2014,11,29,11,30,0.20
2014,11,29,11,31,0.20
2014,11,29,11,32,0.20
2014,11,29,11,33,0.20
2014,11,29,11,34,0.20
2014,11,29,11,35,0.20
2014,11,29,11,36,0.20
2014,11,29,11,37,0.30
2014,11,29,11,38,0.30
2014,11,29,11,39,0.30
2014,11,29,11,40,0.30
2014,11,29,11,41,0.40
2014,11,29,11,42,0.40
2014,11,29,11,43,0.40
2014,11,29,11,44,0.40
2014,11,29,11,45,0.50
2014,11,29,11,46,0.50
2014,11,29,11,47,0.60
2014,11,29,11,48,0.60
2014,11,29,11,49,0.60
2014,11,29,11,50,0.60
2014,11,29,11,51,0.60
2014,11,29,11,52,0.60
2014,11,29,11,53,0.60
2014,11,29,11,54,0.60
2014,11,29,11,55,0.60
2014,11,29,11,56,0.60
2014,11,29,11,57,0.60
2014,11,29,11,58,0.70
2014,11,29,11,59,0.70
2014,11,29,12,00,0.70
2014,11,29,12,01,0.70
2014,11,29,12,02,0.70
2014,11,29,12,03,0.70
2014,11,29,12,04,0.70
2014,11,29,12,05,0.70
2014,11,29,12,06,0.70
2014,11,29,12,07,0.70
2014,11,29,12,08,0.70
2014,11,29,12,09,0.70
2014,11,29,12,10,0.70
2014,11,29,12,11,0.70
2014,11,29,12,12,0.70
2014,11,29,12,13,0.70
2014,11,29,12,14,0.70
2014,11,29,12,15,0.70
2014,11,29,12,16,0.70
2014,11,29,12,17,0.80
2014,11,29,12,18,0.80
2014,11,29,12,19,0.80
2014,11,29,12,20,0.80
2014,11,29,12,21,0.90
2014,11,29,12,22,0.90
2014,11,29,12,23,0.90
2014,11,29,12,24,0.90
2014,11,29,12,25,0.90
2014,11,29,12,26,1.00
2014,11,29,12,27,1.00
2014,11,29,12,28,1.10
2014,11,29,12,29,1.10
2014,11,29,12,30,1.10
2014,11,29,12,31,1.10
2014,11,29,12,32,1.10
2014,11,29,12,33,1.00
2014,11,29,12,34,1.00
2014,11,29,12,35,1.00
2014,11,29,12,36,1.10
2014,11,29,12,37,1.00
2014,11,29,12,38,1.10
2014,11,29,12,39,1.00
2014,11,29,12,40,1.00
2014,11,29,12,41,1.10
2014,11,29,12,42,1.10
2014,11,29,12,43,1.10
2014,11,29,12,44,1.20
2014,11,29,12,45,1.20
2014,11,29,12,46,1.30
2014,11,29,12,47,1.30
2014,11,29,12,48,1.30
2014,11,29,12,49,1.30
2014,11,29,12,50,1.30
2014,11,29,12,51,1.30
2014,11,29,12,52,1.30
2014,11,29,12,53,1.30
2014,11,29,12,54,1.30
2014,11,29,12,55,1.40
2014,11,29,12,56,1.40
2014,11,29,12,57,1.30
2014,11,29,12,58,1.30
2014,11,29,12,59,1.30
2014,11,29,13,00,1.30
2014,11,29,13,01,1.40
2014,11,29,13,02,1.40
2014,11,29,13,03,1.40
2014,11,29,13,04,1.40
2014,11,29,13,05,1.50
2014,11,29,13,06,1.50
2014,11,29,13,07,1.50
2014,11,29,13,08,1.50
2014,11,29,13,09,1.60
2014,11,29,13,10,1.60
2014,11,29,13,11,1.60
2014,11,29,13,12,1.60
2014,11,29,13,13,1.60
2014,11,29,13,14,1.60
2014,11,29,13,15,1.70
2014,11,29,13,16,1.70
2014,11,29,13,17,1.70
2014,11,29,13,18,1.70
2014,11,29,13,19,1.70
2014,11,29,13,20,1.70
2014,11,29,13,21,1.70
2014,11,29,13,22,1.70
2014,11,29,13,23,1.70
2014,11,29,13,24,1.80
2014,11,29,13,25,1.80
2014,11,29,13,26,1.80
2014,11,29,13,27,1.80
2014,11,29,13,28,1.80
2014,11,29,13,29,1.80
2014,11,29,13,30,1.80
2014,11,29,13,31,1.80
2014,11,29,13,32,1.80
2014,11,29,13,33,1.70
2014,11,29,13,34,1.70
2014,11,29,13,35,1.70
2014,11,29,13,36,1.70
2014,11,29,13,37,1.80
2014,11,29,13,38,1.80
2014,11,29,13,39,1.80
2014,11,29,13,40,1.80
2014,11,29,13,41,1.80
2014,11,29,13,42,1.80
2014,11,29,13,43,1.80
2014,11,29,13,44,1.80
2014,11,29,13,45,1.90
2014,11,29,13,46,1.90
2014,11,29,13,47,1.90
2014,11,29,13,48,1.90
2014,11,29,13,49,1.90
2014,11,29,13,50,1.90
2014,11,29,13,51,1.90
2014,11,29,13,52,2.00
2014,11,29,13,53,2.00
2014,11,29,13,54,2.00
2014,11,29,13,55,2.10
2014,11,29,13,56,2.10
2014,11,29,13,57,2.00
2014,11,29,13,58,2.10
2014,11,29,13,59,2.10
2014,11,29,14,00,2.10
2014,11,29,14,01,2.10
2014,11,29,14,02,2.10
2014,11,29,14,03,2.10
2014,11,29,14,04,2.10
2014,11,29,14,05,2.10
2014,11,29,14,06,2.20
2014,11,29,14,07,2.20
2014,11,29,14,08,2.20
2014,11,29,14,09,2.20
2014,11,29,14,10,2.30
2014,11,29,14,11,2.30
2014,11,29,14,12,2.30
2014,11,29,14,13,2.30
2014,11,29,14,14,2.30
2014,11,29,14,15,2.30
2014,11,29,14,16,2.30
2014,11,29,14,17,2.30
2014,11,29,14,18,2.30
2014,11,29,14,19,2.30
2014,11,29,14,20,2.30
2014,11,29,14,21,2.20
2014,11,29,14,22,2.20
2014,11,29,14,23,2.20
2014,11,29,14,24,2.20
2014,11,29,14,25,2.20
2014,11,29,14,26,2.20
2014,11,29,14,27,2.20
2014,11,29,14,28,2.20
2014,11,29,14,29,2.20
2014,11,29,14,30,2.10
2014,11,29,14,31,2.10
2014,11,29,14,32,2.10
2014,11,29,14,33,2.10
2014,11,29,14,34,2.10
2014,11,29,14,35,2.10
2014,11,29,14,36,2.10
2014,11,29,14,37,2.10
2014,11,29,14,38,2.10
2014,11,29,14,39,2.10
2014,11,29,14,40,2.10
2014,11,29,14,41,2.10
2014,11,29,14,42,2.10
2014,11,29,14,43,2.10
2014,11,29,14,44,2.10
2014,11,29,14,45,2.00
2014,11,29,14,46,2.00
2014,11,29,14,47,2.00
2014,11,29,14,48,2.00
2014,11,29,14,49,2.00
2014,11,29,14,50,1.90
2014,11,29,14,51,1.90
2014,11,29,14,52,1.90
2014,11,29,14,53,1.90
2014,11,29,14,54,1.90
2014,11,29,14,55,1.90
2014,11,29,14,56,1.90
2014,11,29,14,57,1.90
2014,11,29,14,58,1.90
2014,11,29,14,59,1.90
2014,11,29,15,00,1.90
2014,11,29,15,01,1.90
2014,11,29,15,02,1.90
2014,11,29,15,03,1.90
2014,11,29,15,04,1.90
2014,11,29,15,05,1.90
2014,11,29,15,06,1.90
2014,11,29,15,07,1.90
2014,11,29,15,08,1.80
2014,11,29,15,09,1.80
2014,11,29,15,10,1.80
2014,11,29,15,11,1.80
2014,11,29,15,12,1.80
2014,11,29,15,13,1.70
2014,11,29,15,14,1.70
2014,11,29,15,15,1.70
2014,11,29,15,16,1.70
2014,11,29,15,17,1.70
2014,11,29,15,18,1.80
2014,11,29,15,19,1.80
2014,11,29,15,20,1.80
2014,11,29,15,21,1.80
2014,11,29,15,22,1.80
2014,11,29,15,23,1.80
2014,11,29,15,24,1.80
2014,11,29,15,25,1.80
2014,11,29,15,26,1.80
2014,11,29,15,27,1.80
2014,11,29,15,28,1.80
2014,11,29,15,29,1.80
2014,11,29,15,30,1.80
2014,11,29,15,31,1.70
2014,11,29,15,32,1.70
2014,11,29,15,33,1.70
2014,11,29,15,34,1.70
2014,11,29,15,35,1.70
2014,11,29,15,36,1.70
2014,11,29,15,37,1.70
2014,11,29,15,38,1.70
2014,11,29,15,39,1.70
2014,11,29,15,40,1.70
2014,11,29,15,41,1.70
2014,11,29,15,42,1.60
2014,11,29,15,43,1.60
2014,11,29,15,44,1.60
2014,11,29,15,45,1.60
2014,11,29,15,46,1.50
2014,11,29,15,47,1.50
2014,11,29,15,48,1.50
2014,11,29,15,49,1.50
2014,11,29,15,50,1.50
2014,11,29,15,51,1.50
2014,11,29,15,52,1.50
2014,11,29,15,53,1.50
2014,11,29,15,54,1.50
2014,11,29,15,55,1.60
2014,11,29,15,56,1.50
2014,11,29,15,57,1.60
2014,11,29,15,58,1.60
2014,11,29,15,59,1.60
2014,11,29,16,00,1.60
2014,11,29,16,01,1.60
2014,11,29,16,02,1.60
2014,11,29,16,03,1.60
2014,11,29,16,04,1.60
2014,11,29,16,05,1.60
2014,11,29,16,06,1.60
2014,11,29,16,07,1.50
2014,11,29,16,08,1.50
2014,11,29,16,09,1.50
2014,11,29,16,10,1.40
2014,11,29,16,11,1.40
2014,11,29,16,12,1.40
2014,11,29,16,13,1.40
2014,11,29,16,14,1.40
2014,11,29,16,15,1.40
2014,11,29,16,16,1.40
2014,11,29,16,17,1.30
2014,11,29,16,18,1.30
2014,11,29,16,19,1.30
2014,11,29,16,20,1.30
2014,11,29,16,21,1.30
2014,11,29,16,22,1.30
2014,11,29,16,23,1.30
2014,11,29,16,24,1.30
2014,11,29,16,25,1.20
2014,11,29,16,26,1.20
2014,11,29,16,27,1.20
2014,11,29,16,28,1.20
2014,11,29,16,29,1.20
2014,11,29,16,30,1.20
2014,11,29,16,31,1.20
2014,11,29,16,32,1.20
2014,11,29,16,33,1.10
2014,11,29,16,34,1.10
2014,11,29,16,35,1.10
2014,11,29,16,36,1.10
2014,11,29,16,37,1.10
2014,11,29,16,38,1.00
2014,11,29,16,39,0.90
2014,11,29,16,40,0.90
2014,11,29,16,41,0.80
2014,11,29,16,42,0.70
2014,11,29,16,43,0.70
2014,11,29,16,44,0.60
2014,11,29,16,45,0.60
2014,11,29,16,46,0.50
2014,11,29,16,47,0.50
2014,11,29,16,48,0.40
2014,11,29,16,49,0.30
2014,11,29,16,50,0.30
2014,11,29,16,51,0.20
2014,11,29,16,52,0.10
2014,11,29,16,53,0.10
2014,11,29,16,54,0.10
2014,11,29,16,55,0.00
2014,11,29,16,56,0.00
2014,11,29,16,57,-0.10
2014,11,29,16,58,-0.10
2014,11,29,16,59,-0.20
2014,11,29,17,00,-0.30
2014,11,29,17,01,-0.30
2014,11,29,17,02,-0.30
2014,11,29,17,03,-0.40
2014,11,29,17,04,-0.50
2014,11,29,17,05,-0.50
2014,11,29,17,06,-0.50
2014,11,29,17,07,-0.60
2014,11,29,17,08,-0.60
2014,11,29,17,09,-0.60
2014,11,29,17,10,-0.70
2014,11,29,17,11,-0.70
2014,11,29,17,12,-0.70
2014,11,29,17,13,-0.70
2014,11,29,17,14,-0.70
2014,11,29,17,15,-0.80
2014,11,29,17,16,-0.80
2014,11,29,17,17,-0.80
2014,11,29,17,18,-0.90
2014,11,29,17,19,-0.80
2014,11,29,17,20,-0.80
2014,11,29,17,21,-0.80
2014,11,29,17,22,-0.80
2014,11,29,17,23,-0.80
2014,11,29,17,24,-0.80
2014,11,29,17,25,-0.80
2014,11,29,17,26,-0.80
2014,11,29,17,27,-0.80
2014,11,29,17,28,-0.90
2014,11,29,17,29,-0.90
2014,11,29,17,30,-0.90
2014,11,29,17,31,-1.00
2014,11,29,17,32,-1.10
2014,11,29,17,33,-1.10
2014,11,29,17,34,-1.20
2014,11,29,17,35,-1.30
2014,11,29,17,36,-1.30
2014,11,29,17,37,-1.30
2014,11,29,17,38,-1.30
2014,11,29,17,39,-1.40
2014,11,29,17,40,-1.40
2014,11,29,17,41,-1.40
2014,11,29,17,42,-1.50
2014,11,29,17,43,-1.50
2014,11,29,17,44,-1.50
2014,11,29,17,45,-1.60
2014,11,29,17,46,-1.60
2014,11,29,17,47,-1.70
2014,11,29,17,48,-1.70
2014,11,29,17,49,-1.80
2014,11,29,17,50,-1.80
2014,11,29,17,51,-1.80
2014,11,29,17,52,-1.90
2014,11,29,17,53,-1.90
2014,11,29,17,54,-1.90
2014,11,29,17,55,-2.00
2014,11,29,17,56,-2.00
2014,11,29,17,57,-2.10
2014,11,29,17,58,-2.10
2014,11,29,17,59,-2.10
2014,11,29,18,00,-2.20
2014,11,29,18,01,-2.20
2014,11,29,18,02,-2.20
2014,11,29,18,03,-2.20
2014,11,29,18,04,-2.30
2014,11,29,18,05,-2.30
2014,11,29,18,06,-2.30
2014,11,29,18,07,-2.30
2014,11,29,18,08,-2.30
2014,11,29,18,09,-2.30
2014,11,29,18,10,-2.40
2014,11,29,18,11,-2.40
2014,11,29,18,12,-2.40
2014,11,29,18,13,-2.40
2014,11,29,18,14,-2.40
2014,11,29,18,15,-2.50
2014,11,29,18,16,-2.50
2014,11,29,18,17,-2.50
2014,11,29,18,18,-2.60
2014,11,29,18,19,-2.60
2014,11,29,18,20,-2.60
2014,11,29,18,21,-2.60
2014,11,29,18,22,-2.60
2014,11,29,18,23,-2.60
2014,11,29,18,24,-2.70
2014,11,29,18,25,-2.70
2014,11,29,18,26,-2.70
2014,11,29,18,27,-2.70
2014,11,29,18,28,-2.70
2014,11,29,18,29,-2.70
2014,11,29,18,30,-2.70
2014,11,29,18,31,-2.70
2014,11,29,18,32,-2.70